Location: Go�ngahuizen
(53.0821°N, 5.8849°E)
Time: 23:45:04
(UTC+00:00)

Cosmos 1408 Rocket - Pass Details

Date: 09 April 2020
Orbit: 600 x 632 km, 82.6° (Epoch: 23 May)

Event Time Altitude Azimuth Distance (km) Brightness Sun altitude
Rises 21:24:20 0° 348° (NNW) 2,935 8.1 -22.7°
Reaches altitude 10° 21:26:36 10° 348° (NNW) 2,019 7.1 -22.9°
Maximum altitude 21:31:05 86° 262° (W) 635 3.5 -23.3°
Enters shadow 21:31:24 77° 190° (S) 648 3.4 -23.3°
